Preview of NWS' New Version of Forecast
This preview is not operational and should not be used for support decisions.
Latest weather observations around

EW3141 Corona Del Mar (E3141)

Using English Units (Switch to International System of Units)
Date/ Time (PDT) Wind (mph) Vis. (mi) Weather Sky Cond. Temp (°F) Rel. Humidity Wind Chill (°F) Heat Index (°F) Pressure Precip. (in)
Air Dwpt 6 hour Altimeter (inHg) Sea level (inHg) 1 hr 3 hr 6 hr
Max Min
Aug 22 00:15 E 5   Clear   67 61     82%     29.76        
Aug 21 23:47 ESE 1   Clear   66 60     81%     29.77        
Aug 21 23:31 ESE 1   Clear   66 60     81%     29.77        
Aug 21 23:17 Calm   Clear   67 61     81%     29.77        
Aug 21 23:01 Calm   Clear   67 61     81%     29.77        
Aug 21 22:47 Calm   Clear   68 62     81%     29.77        
Aug 21 22:31 Calm   Clear   68 62     81%     29.77        
Aug 21 22:16 Calm   Clear   68 62     81%     29.77        
Aug 21 22:03 Calm   Clear   68 62     81%     29.77        
Aug 21 21:46 Calm   Clear   68 62     81%     29.77        
Aug 21 21:31 Calm   Clear   68 62     81%     29.77        
Aug 21 21:16 Calm   Clear   68 62     81%     29.77        
Aug 21 21:02 Calm   Clear   69 63     80%     29.77        
Aug 21 20:46 ESE 1   Clear   69 63     80%     29.77        
Aug 21 20:31 ESE 1   Clear   69 63     80%     29.77        
Aug 21 20:18 Calm   Clear   70 63     79%     29.76        
Aug 21 20:01 Calm   Clear   70 63     79%     29.76        
Aug 21 19:46 Calm   Clear   70 63     78%     29.76        
Aug 21 19:32 Calm   Clear   71 63     77%   71 29.76        
Aug 21 19:16 Calm   Clear   73 65     75%   74 29.76        
Aug 21 19:01 SSW 1   Clear   74 65     73%   75 29.76        
Aug 21 18:46 SSW 2   Clear   75 65     71%   76 29.76        
Aug 21 18:31 SW 2   Clear   76 66     71%   77 29.76        
Aug 21 18:16 SSW 2   Clear   76 66     71%   77 29.76        
Aug 21 18:01 SW 4   Clear   78 67     68%   79 29.76        
Aug 21 17:46 SW 2   Clear   78 66     67%   79 29.76        
Aug 21 17:31 SSW 1   Clear   78 65     65%   79 29.76        
Aug 21 17:16 SW 2   Clear   79 67     66%   80 29.76        
Aug 21 17:01 SW 3   Clear   78 65     65%   79 29.76        
Aug 21 16:48 S 3   Clear   78 64     62%   78 29.76        
Aug 21 16:31 S 3   Clear   78 64     62%   78 29.77        
Aug 21 16:16 S 1   Clear   79 65     62%   80 29.77        
Aug 21 16:00 S 2   Clear   78 65     65%   79 29.78        
Aug 21 15:46 SSW 3   Clear   77 64     65%   77 29.78        
Aug 21 15:30 SSE 3   Clear   77 65     66%   77 29.78        
Aug 21 15:16 S 4   Clear   77 66     68%   78 29.8        
Aug 21 15:01 SSE 3   Clear   77 66     69%   78 29.8        
Aug 21 14:45 S 3   Clear   76 65     70%   77 29.81        
Aug 21 14:30 SSW 3   Clear   75 65     72%   76 29.81        
Aug 21 14:15 S 6   Clear   75 66     73%   76 29.83        
Aug 21 14:00 SSW 3   Clear   75 66     74%   76 29.82        
Aug 21 13:45 SW 4   Clear   75 66     74%   76 29.83        
Aug 21 13:30 SSW 4   Clear   74 65     74%   75 29.83        
Aug 21 13:15 S 4   Clear   74 65     74%   75 29.83        
Aug 21 13:00 SW 4   Clear   74 65     74%   75 29.84        
Aug 21 12:45 S 4   Clear   74 65     74%   75 29.85        
Aug 21 12:30 S 4   Clear   74 65     74%   75 29.85        
Aug 21 12:15 SE 2   Clear   75 67     75%   76 29.86        
Aug 21 12:00 S 2   Clear   74 65     73%   75 29.86        
Aug 21 11:45 SSE 4   Clear   74 65     73%   75 29.87        
Aug 21 11:30 S 4   Clear   74 65     73%   75 29.87        
Aug 21 11:15 SSE 3   Clear   74 65     73%   75 29.88        
Aug 21 11:00 ESE 5   Clear   74 65     74%   75 29.88        
Aug 21 10:46 ESE 4   Clear   73 65     75%   74 29.88        
Aug 21 10:31 ESE 4   Clear   72 64     76%   72 29.88        
Aug 21 10:16 S 3   Clear   72 64     76%   72 29.88        
Aug 21 10:02 ESE 4   Clear   71 63     77%   71 29.88        
Aug 21 09:48 ESE 3   Clear   70 63     78%     29.88        
Aug 21 09:34 ESE 3   Clear   69 62     79%     29.88        
Aug 21 09:16 ESE 4   Clear   69 63     81%     29.87        
Aug 21 09:02 S 2   Clear   68 63     83%     29.87        
Aug 21 08:46 S 1   Clear   67 62     84%     29.87        
Aug 21 08:31 WSW 1   Clear   66 61     84%     29.86        
Aug 21 08:16 Calm   Clear   66 61     84%     29.86        
Aug 21 08:01 Calm   Clear   65 60     84%     29.86        
Aug 21 07:45 Calm   Clear   65 60     85%     29.85        
Aug 21 07:31 Calm   Clear   64 59     84%     29.85        
Aug 21 07:16 Calm   Clear   64 59     84%     29.85        
Aug 21 07:00 Calm   Clear   63 58     84%     29.85        
Aug 21 06:46 Calm   Clear   63 58     84%     29.85        
Aug 21 06:31 Calm   Clear   63 58     83%     29.85        
Aug 21 06:15 Calm   Clear   63 58     83%     29.84        
Aug 21 06:01 Calm   Clear   63 58     83%     29.84        
Aug 21 05:45 Calm   Clear   63 58     83%     29.84        
Aug 21 05:31 Calm   Clear   63 58     83%     29.84        
Aug 21 05:15 Calm   Clear   63 57     82%     29.84        
Aug 21 05:00 Calm   Clear   64 59     83%     29.84        
Aug 21 04:46 Calm   Clear   63 58     83%     29.84        
Aug 21 04:31 Calm   Clear   64 58     82%     29.84        
Aug 21 04:16 Calm   Clear   64 58     82%     29.84        
Aug 21 04:00 Calm   Clear   64 58     82%     29.84        
Aug 21 03:45 Calm   Clear   64 58     82%     29.84        
Aug 21 03:31 Calm   Clear   64 58     82%     29.85        
Aug 21 03:15 Calm   Clear   64 58     82%     29.85        
Aug 21 03:00 Calm   Clear   64 58     82%     29.85        
Aug 21 02:46 Calm   Clear   64 58     82%     29.85        
Aug 21 02:30 Calm   Clear   64 58     81%     29.85        
Aug 21 02:15 Calm   Clear   64 58     81%     29.85        
Aug 21 02:00 Calm   Clear   64 58     81%     29.85        
Aug 21 01:45 Calm   Clear   64 58     81%     29.85        
Aug 21 01:30 Calm   Clear   64 58     80%     29.86        
Aug 21 01:15 Calm   Clear   64 58     80%     29.86        
Aug 21 01:00 Calm   Clear   64 57     79%     29.87        
Aug 21 00:45 Calm   Clear   65 58     79%     29.87        
Aug 21 00:30 Calm   Clear   65 58     79%     29.87        
Aug 21 00:15 Calm   Clear   65 58     78%     29.87        
Aug 21 00:02 Calm   Clear   65 58     79%     29.88        
Aug 20 23:47 Calm   Clear   66 59     78%     29.88        
Aug 20 23:32 Calm   Clear   67 60     78%     29.88        
Aug 20 23:17 Calm   Clear   67 60     78%     29.87        
Aug 20 23:01 Calm   Clear   66 59     78%     29.87        
Aug 20 22:48 Calm   Clear   67 60     77%     29.88        
Aug 20 22:31 Calm   Clear   67 60     78%     29.88        
Aug 20 22:16 Calm   Clear   67 60     78%     29.88        
Aug 20 22:02 Calm   Clear   67 60     77%     29.88        
Aug 20 21:46 Calm   Clear   68 61     77%     29.88        
Aug 20 21:32 Calm   Clear   68 61     77%     29.87        
Aug 20 21:17 Calm   Clear   68 60     76%     29.87        
Aug 20 21:02 W 2   Clear   68 60     76%     29.87        
Aug 20 20:46 Calm   Clear   69 61     75%     29.86        
Aug 20 20:32 W 2   Clear   69 61     75%     29.86        
Aug 20 20:18 W 3   Clear   69 60     74%     29.86        
Aug 20 20:01 Calm   Clear   70 60     71%     29.86        
Aug 20 19:47 WSW 4   Clear   70 60     70%     29.86        
Aug 20 19:31 W 4   Clear   71 61     70%   71 29.86        
Aug 20 19:16 WSW 3   Clear   72 61     69%   72 29.86        
Aug 20 19:01 WSW 7   Clear   73 61     67%   73 29.86        
Aug 20 18:46 W 6   Clear   74 62     67%   74 29.86        
Aug 20 18:31 WSW 5   Clear   72 62     71%   72 29.86        
Aug 20 18:16 SSW 6   Clear   73 62     69%   73 29.86        
Aug 20 18:02 SW 6   Clear   74 63     69%   74 29.86        
Aug 20 17:46 SW 7   Clear   73 63     70%   73 29.87        
Aug 20 17:31 SW 9   Clear   74 63     69%   74 29.87        
Aug 20 17:16 W 6   Clear   75 63     67%   75 29.87        
Aug 20 17:01 SW 5   Clear   76 65     68%   76 29.87        
Aug 20 16:46 SSW 5   Clear   75 64     68%   75 29.88        
Aug 20 16:31 WSW 9   Clear   74 64     70%   74 29.88        
Aug 20 16:16 SW 7   Clear   75 65     70%   75 29.88        
Aug 20 16:01 SW 10   Clear   74 64     70%   74 29.88        
Aug 20 15:46 SW 7   Clear   76 63     65%   76 29.88        
Aug 20 15:30 WSW 6   Clear   77 64     65%   77 29.88        
Aug 20 15:16 W 7   Clear   75 64     68%   75 29.89        
Aug 20 15:01 SW 9   Clear   75 65     70%   75 29.9        
Aug 20 14:46 SSW 4   Clear   75 65     70%   75 29.9        
Aug 20 14:30 SW 5   Clear   75 65     70%   75 29.91        
Aug 20 14:15 SW 7   Clear   74 64     72%   74 29.92        
Aug 20 14:00 SSW 7   Clear   74 64     70%   74 29.92        
Aug 20 13:45 SW 5   Clear   73 64     73%   73 29.93        
Aug 20 13:31 SW 7   Clear   73 63     72%   73 29.93        
Aug 20 13:16 WSW 6   Clear   73 63     72%   73 29.93        
Aug 20 13:00 SW 6   Clear   72 62     72%   72 29.93        
Aug 20 12:45 SW 7   Clear   73 63     72%   73 29.94        
Aug 20 12:30 SW 6   Clear   73 63     72%   73 29.95        
Aug 20 12:15 SSW 6   Clear   73 63     71%   73 29.95        
Aug 20 12:00 WSW 5   Clear   73 63     72%   73 29.95        
Aug 20 11:45 SSW 5   Clear   72 62     72%   72 29.96        
Aug 20 11:30 WSW 4   Clear   72 62     72%   72 29.96        
Aug 20 11:15 SSW 4   Clear   72 63     73%   72 29.96        
Aug 20 11:00 SW 2   Clear   72 63     73%   72 29.96        
Aug 20 10:45 S 3   Clear   71 62     74%   71 29.96        
Aug 20 10:30 S 1   Clear   71 62     74%   71 29.96        
Aug 20 10:15 S 3   Clear   71 63     75%   71 29.96        
Aug 20 10:00 SW 3   Clear   70 62     75%     29.96        
Aug 20 09:45 SW 2   Clear   70 62     75%     29.96        
Aug 20 09:17 S 1   Clear   68 61     78%     29.95        
Aug 20 09:02 WSW 1   Clear   68 61     79%     29.96        
Aug 20 08:47 Calm   Clear   67 61     80%     29.95        
Aug 20 08:32 Calm   Clear   66 60     81%     29.95        
Aug 20 08:16 SW 3   Clear   66 60     82%     29.95        
Aug 20 08:02 SSW 2   Clear   66 61     83%     29.95        
Aug 20 07:46 Calm   Clear   65 60     83%     29.95        
Aug 20 07:31 Calm   Clear   64 59     83%     29.95        
Aug 20 07:16 Calm   Clear   64 59     83%     29.95        
Aug 20 07:01 Calm   Clear   64 59     83%     29.94        
Aug 20 06:46 Calm   Clear   64 59     83%     29.94        
Aug 20 06:31 Calm   Clear   64 59     83%     29.94        
Aug 20 06:16 Calm   Clear   63 58     83%     29.94        
Aug 20 06:01 Calm   Clear   63 58     83%     29.94        
Aug 20 05:46 Calm   Clear   63 58     83%     29.93        
Aug 20 05:31 Calm   Clear   63 58     83%     29.93        
Aug 20 05:16 Calm   Clear   63 58     83%     29.93        
Aug 20 05:00 NE 1   Clear   62 56     82%     29.92        
Aug 20 04:45 Calm   Clear   62 56     82%     29.92        
Aug 20 04:31 Calm   Clear   62 57     83%     29.92        
Aug 20 04:15 Calm   Clear   62 57     83%     29.92        
Aug 20 04:01 Calm   Clear   62 56     82%     29.92        
Aug 20 03:45 Calm   Clear   63 57     82%     29.92        
Aug 20 03:31 NE 1   Clear   63 58     83%     29.91        
Aug 20 03:15 NE 1   Clear   63 57     82%     29.91        
Aug 20 03:00 Calm   Clear   63 57     82%     29.91        
Aug 20 02:45 Calm   Clear   63 57     82%     29.91        
Aug 20 02:30 Calm   Clear   64 58     82%     29.91        
Aug 20 02:16 Calm   Clear   64 58     82%     29.91        
Aug 20 02:00 Calm   Clear   64 58     82%     29.91        
Aug 20 01:45 Calm   Clear   64 58     81%     29.91        
Aug 20 01:30 Calm   Clear   64 58     81%     29.91        
Aug 20 01:15 Calm   Clear   65 59     81%     29.91        
Aug 20 01:00 Calm   Clear   65 59     82%     29.91        
Aug 20 00:45 Calm   Clear   65 59     82%     29.91        
Aug 20 00:30 Calm   Clear   65 59     81%     29.91        
Aug 20 00:15 Calm   Clear   65 59     81%     29.91        
Aug 20 00:00 Calm   Clear   65 59     81%     29.91        
Aug 19 23:45 Calm   Clear   65 59     81%     29.92        
Aug 19 23:30 Calm   Clear   66 60     81%     29.92        
Aug 19 23:15 Calm   Clear   66 60     81%     29.92        
Aug 19 23:00 Calm   Clear   66 60     81%     29.92        
Aug 19 22:45 Calm   Clear   66 60     81%     29.92        
Aug 19 22:30 Calm   Clear   66 60     81%     29.91        
Aug 19 22:15 W 4   Clear   67 61     81%     29.91        
Aug 19 22:00 Calm   Clear   67 61     81%     29.91        
Aug 19 21:45 WSW 3   Clear   67 61     81%     29.91        
Aug 19 21:30 W 3   Clear   67 61     80%     29.91        
Aug 19 21:15 W 4   Clear   67 61     80%     29.91        
Aug 19 21:00 W 6   Clear   67 61     80%     29.9        
Aug 19 20:45 WSW 7   Clear   67 61     80%     29.9        
Aug 19 20:30 W 6   Clear   67 61     80%     29.89        
Aug 19 20:15 W 5   Clear   68 61     79%     29.89        
Aug 19 20:00 WSW 8   Clear   68 61     79%     29.88        
Aug 19 19:45 WSW 6   Clear   68 61     77%     29.89        
Aug 19 19:30 WSW 8   Clear   69 61     76%     29.89        
Aug 19 19:15 SW 9   Clear   70 61     74%     29.89        
Aug 19 19:00 SW 8   Clear   72 62     72%   72 29.88        
Aug 19 18:45 W 7   Clear   73 63     70%   73 29.88        
Aug 19 18:30 WSW 7   Clear   73 63     71%   73 29.88        
Aug 19 18:17 W 10   Clear   72 62     71%   72 29.88        
Aug 19 18:02 WSW 12   Clear   73 62     69%   73 29.89        
Aug 19 17:46 SW 12   Clear   73 63     70%   73 29.9        
Aug 19 17:31 WSW 11   Clear   74 63     68%   74 29.9        
Aug 19 17:18 WSW 11   Clear   74 63     68%   74 29.9        
Aug 19 17:01 W 8   Clear   75 64     69%   75 29.9        
Aug 19 16:46 SW 9   Clear   73 63     71%   73 29.9        
Aug 19 16:31 W 9   Clear   73 63     71%   73 29.91        
Aug 19 16:16 WSW 10   Clear   73 63     71%   73 29.91        
Aug 19 16:02 SW 11   Clear   72 62     71%   72 29.91        
Aug 19 15:48 SW 12   Clear   72 62     71%   72 29.91        
Aug 19 15:31 SW 12   Clear   73 62     69%   73 29.92        
Aug 19 15:16 SSW 9   Clear   74 63     69%   74 29.92        
Aug 19 15:01 SSW 7   Clear   75 64     68%   75 29.93        
Aug 19 14:46 WSW 8   Clear   74 63     68%   74 29.93        
Aug 19 14:31 WSW 9   Clear   74 63     69%   74 29.94        
Aug 19 14:16 SW 7   Clear   75 63     67%   75 29.94        
Aug 19 14:01 SW 9   Clear   74 62     67%   74 29.95        
Aug 19 13:46 SW 6   Clear   73 62     68%   73 29.95        
Aug 19 13:31 SW 7   Clear   74 63     68%   74 29.95        
Aug 19 13:16 SSW 7   Clear   72 61     69%   72 29.95        
Aug 19 13:01 WSW 8   Clear   73 62     68%   73 29.96        
Aug 19 12:45 SSW 7   Clear   74 62     67%   74 29.96        
Aug 19 12:30 SW 5   Clear   75 63     66%   75 29.96        
Aug 19 12:16 WSW 5   Clear   74 62     66%   74 29.97        
Aug 19 12:01 SSW 6   Clear   74 62     67%   74 29.96        
Aug 19 11:45 S 5   Clear   74 62     67%   74 29.97        
Aug 19 11:31 SSW 5   Clear   73 61     66%   73 29.97        
Aug 19 11:16 SSW 6   Clear   73 61     67%   73 29.97        
Aug 19 11:01 S 4   Clear   73 61     66%   73 29.97        
Aug 19 10:46 S 1   Clear   73 62     68%   73 29.97        
Aug 19 10:30 SSW 3   Clear   72 61     68%   72 29.97        
Aug 19 10:15 WSW 3   Clear   72 61     69%   72 29.97        
Aug 19 10:01 SSW 2   Clear   71 61     70%   71 29.98        
Aug 19 09:46 S 2   Clear   70 60     71%     29.98        
Aug 19 09:30 SSW 2   Clear   70 60     71%     29.97        
Aug 19 09:15 SSW 4   Clear   70 61     72%     29.97        
Aug 19 09:00 Calm   Clear   70 61     72%     29.96        
Aug 19 08:45 Calm   Clear   69 60     72%     29.96        
Aug 19 08:30 Calm   Clear   69 60     73%     29.96        
Aug 19 08:15 Calm   Clear   68 59     74%     29.96        
Aug 19 08:00 Calm   Clear   68 60     76%     29.96        
Aug 19 07:45 Calm   Clear   67 59     76%     29.96        
Aug 19 07:30 Calm   Clear   67 59     76%     29.96        
Aug 19 07:15 Calm   Clear   67 59     76%     29.95        
Aug 19 07:00 Calm   Clear   67 59     76%     29.95        
Aug 19 06:45 Calm   Clear   67 59     76%     29.95        
Aug 19 06:30 Calm   Clear   67 59     76%     29.95        
Aug 19 06:17 Calm   Clear   67 59     76%     29.95        
Aug 19 06:03 Calm   Clear   67 60     77%     29.94        
Aug 19 05:47 Calm   Clear   67 60     77%     29.94        
Aug 19 05:31 Calm   Clear   67 60     77%     29.94        
Aug 19 05:16 Calm   Clear   67 60     77%     29.93        
Aug 19 05:02 Calm   Clear   67 60     78%     29.93        
Aug 19 04:46 Calm   Clear   67 60     78%     29.93        
Aug 19 04:31 Calm   Clear   67 60     79%     29.93        
Aug 19 04:17 Calm   Clear   67 60     79%     29.93        
Aug 19 04:01 Calm   Clear   66 59     79%     29.93        
Aug 19 03:48 Calm   Clear   66 59     79%     29.93        
Aug 19 03:31 Calm   Clear   66 59     79%     29.93        
Aug 19 03:16 Calm   Clear   66 59     79%     29.93        
Aug 19 03:01 Calm   Clear   66 59     79%     29.92        
Aug 19 02:46 Calm   Clear   66 60     80%     29.92        
Aug 19 02:31 Calm   Clear   66 60     81%     29.92        
Aug 19 02:16 SW 1   Clear   66 60     81%     29.91        
Aug 19 02:01 Calm   Clear   66 60     82%     29.91        
Aug 19 01:46 Calm   Clear   65 59     82%     29.92        
Aug 19 01:31 Calm   Clear   65 59     82%     29.92        
Aug 19 01:15 Calm   Clear   64 58     81%     29.91        
Aug 19 01:01 Calm   Clear   65 59     81%     29.91        
Aug 19 00:46 Calm   Clear   65 59     81%     29.91        
Aug 19 00:31 W 1   Clear   65 59     81%     29.91        
May 15 05:52 SSW 2   Clear   59        %     30        
May 14 18:51 W 10   Clear   63        %     29.95        
May 14 18:36 W 7   Clear   64        %     29.95        
Notice The following observation data may not be complete
May 14 18:20     Clear            %              
May 14 18:05 WSW 9   Clear   64        %     29.95        
May 14 17:35 W 10   Clear   65 45     49%     29.96        
May 14 17:05 WSW 12   Clear   65        %     29.96        
May 14 10:03 SW 2   Clear   64        %     29.99        
May 14 09:18 Calm   Clear   63        %     30        
May 14 06:47 Calm   Clear   56 56     100%     29.98        
May 14 06:02 Calm   Clear   54 54     100%     29.97        
May 14 03:31 Calm   Clear   57 57     100%     29.98        
May 14 02:31 Calm   Clear   57 57     100%     29.98        
May 14 01:46 Calm   Clear   57 57     100%     29.98        
May 13 22:30 W 2   Clear   60        %     29.99        
May 13 21:14 WNW 5   Clear   61        %     29.98        
May 13 17:43 WSW 4   Clear   66        %     29.96        
May 13 06:27 Calm   Clear   58 58     100%     30.01        
May 13 06:11 SSE 1   Clear   57 57     100%     30        
Notice The following observation data may not be complete
May 13 05:41     Clear            %              
May 13 02:56 Calm   Clear   57 57     100%     30        
May 13 01:10 Calm   Clear   56 56     100%     30.01        
May 13 00:55 Calm   Clear   57 57     100%     30.02        
May 12 23:24 Calm   Clear   59        %     30.02        
May 12 22:39 S 2   Clear   60        %     30.02        
May 12 19:54 SSE 2   Clear   61        %     29.97        
May 12 19:38 Calm   Clear   62        %     29.97        
May 12 17:08 SSE 3   Clear   65        %     29.96        
Notice The following observation data may not be complete
May 12 15:22     Clear            %              
May 12 14:07 S 1   Clear   66        %     29.99        
May 12 13:06 E 4   Clear   66        %     30        
Notice The following observation data may not be complete
May 12 11:06     Clear            %              
Notice The following observation data may not be complete
May 12 06:35     Clear            %              
May 12 01:48 ESE 2   Clear   57 57     100%     29.9        
May 11 22:47 SSE 3   Clear   58 58     100%     29.89        
May 11 09:00 SE 8   Clear   62        %     29.87        
May 11 07:44 SE 6   Clear   60        %     29.86        
Jun 12 05:06 SW 1   Clear   59 53     80%     29.98        
Jun 11 23:35 NW 7   Clear   62 53     73%     29.98        
Jun 11 22:05 Calm   Clear   62 55     77%     29.97        
Jun 11 16:50 SSW 5   Clear   68 57     68%     29.9        
Jun 11 13:49 S 5   Clear   68 57     69%     29.93        
Jun 11 13:19 S 6   Clear   68 58     70%     29.93        
Jun 11 12:34 SSE 4   Clear   67 58     73%     29.93        
Jun 11 12:19 S 6   Clear   67 58     74%     29.93        
Jun 11 09:34 SSE 1   Clear   61 57     86%     29.91        
Jun 11 08:34 SSE 3   Clear   62 57     83%     29.9        
Jun 11 04:03 Calm   Clear   59 54     84%     29.85        
Jun 10 22:48 Calm   Clear   59 54     82%     29.88        
Jun 10 20:03 Calm   Clear   61 55     80%     29.85        
Jun 10 19:33 Calm   Clear   62 55     78%     29.85        
Jun 10 16:18 SSW 7   Clear   67 57     71%     29.87        
Jun 10 14:48 SW 7   Clear   68 58     71%     29.89        
Jun 10 14:33 SW 7   Clear   68 58     70%     29.89        
Jun 10 09:32 SSW 2   Clear   62 57     85%     29.9        
Jun 10 08:47 SW 5   Clear   62 57     85%     29.89        
Jun 10 06:32 Calm   Clear   60 55     85%     29.88        
Jun 10 05:02 Calm   Clear   61 56     85%     29.86        
Jun 10 01:17 WSW 3   Clear   62 57     85%     29.89        
Jun 09 21:17 WNW 3   Clear   63 58     85%     29.91        
Jun 09 20:32 WNW 9   Clear   63 58     85%     29.9        
Jun 09 15:46 W 5   Clear   69 59     71%     29.9        
Jun 09 15:31 WNW 5   Clear   70 59     69%     29.91        
Jun 09 14:16 SW 2   Clear   71 60     68%   71 29.93        
Jun 09 11:16 SW 4   Clear   66 57     74%     29.95        
Jun 09 05:45 Calm   Clear   58 54     85%     29.93        
Jun 09 03:45 Calm   Clear   57 53     85%     29.93        
Jun 09 02:45 Calm   Clear   58 54     85%     29.93        
Jun 08 22:30 Calm   Clear   61 56     84%     29.95        
Jun 08 21:45 Calm   Clear   61 56     84%     29.95        
Jun 08 18:14 WNW 11   Clear   65 58     78%     29.94        
Jun 08 17:29 WNW 12   Clear   67 59     75%     29.94        
Jun 08 11:29 WNW 1   Clear   65 59     81%     30.03        
Jun 08 08:59 Calm   Clear   62 57     84%     30.01        
Jun 08 01:43 Calm   Clear   61 56     83%     29.98        
Jun 07 22:13 Calm   Clear   62 56     82%     29.96        
Jun 07 20:28 Calm   Clear   62 56     82%     29.94        
Jun 07 17:58 SW 5   Clear   63 57     81%     29.94        
Jun 07 15:43 SSW 2   Clear   65 59     80%     29.94        
Jun 07 14:42 WSW 4   Clear   64 58     81%     29.96        
Jun 07 10:12 Calm   Clear   62 57     83%     29.96        
Jun 07 09:57 Calm   Clear   62 57     83%     29.96        
Jun 07 08:57 Calm   Clear   62 57     83%     29.94        
Jun 07 06:57 Calm   Clear   61 56     84%     29.92        
Jun 06 12:41 SW 4   Clear   66 60     81%     29.95        
Jun 06 07:11 Calm   Clear   61 55     82%     29.92        
Jun 06 01:25 Calm   Clear   61 56     83%     29.89        
Jun 05 22:25 Calm   Clear   62 57     83%     29.91        
Jun 05 20:25 SSE 1   Clear   62 57     83%     29.89        
Jun 05 15:25 SW 6   Clear   66 59     79%     29.86        
Jun 05 14:55 SSW 5   Clear   67 60     79%     29.87        
Jun 05 13:10 SSE 4   Clear   68 62     80%     29.88